Location: American Medical Response
(33.3472°N, 96.5511°W)
Time: 12:03:37
(UTC+00:00)

Cosmos 1812 - Pass Details

Date: 08 December 2021
Orbit: 513 x 519 km, 82.5° (Epoch: 23 January)

Event Time Altitude Azimuth Distance (km) Brightness Sun altitude
Rises 23:48:13 0° 189° (S) 2,627 6.8 -6.4°
Reaches altitude 10° 23:50:20 10° 191° (S) 1,745 5.9 -6.8°
Maximum altitude 23:54:10 75° 276° (W) 543 2.9 -7.6°
Drops below altitude 10° 23:58:01 10° 3° (N) 1,759 5.2 -8.3°
Sets 00:00:10 0° 5° (N) 2,650 6.0 -8.7°
